This is the latest recevied weather packets stored in our database for station/object K1LBG. If no packets are shown the sender has not sent any weather packets the latest 10 day(s).
| Time | Temp. | Humidity | Pressure | Rain* | Wind** | Luminosity | Snow |
|---|---|---|---|---|---|---|---|
| 1777416133 | 11.11° C | 60% | 1019.6 hPa | 0 mm | - | - | - |
| 1777415800 | 11.67° C | 58% | 1019.6 hPa | 0 mm | - | - | - |
| 1777411286 | 14.44° C | 45% | 1020.2 hPa | 0 mm | - | - | - |
| 1777408298 | 15.56° C | 47% | 1020.2 hPa | 0 mm | - | - | - |
| 1777407992 | 15.56° C | 46% | 1020.2 hPa | 0 mm | - | - | - |
| 1777405915 | 16.11° C | 47% | 1020.5 hPa | 0 mm | - | - | - |
| 1777401389 | 16.11° C | 48% | 1021 hPa | 0 mm | - | - | - |
| 1777399604 | 16.11° C | 52% | 1021.2 hPa | 0 mm | - | - | - |
| 1777397497 | 16.11° C | 52% | 1021.3 hPa | 0 mm | - | - | - |
| 1777396294 | 16.11° C | 48% | 1021.2 hPa | 0 mm | - | - | - |
| 1777395983 | 16.11° C | 53% | 1021.3 hPa | 0 mm | - | - | - |
| 1777395704 | 16.11° C | 51% | 1021.4 hPa | 0 mm | - | - | - |
| 1777395122 | 15.56° C | 49% | 1021.5 hPa | 0 mm | - | - | - |
| 1777394481 | 16.11° C | 52% | 1021.7 hPa | 0 mm | - | - | - |
| 1777393301 | 16.11° C | 50% | 1021.8 hPa | 0 mm | - | - | - |
| 1777391793 | 16.11° C | 50% | 1022 hPa | 0 mm | - | - | - |
| 1777391203 | 16.67° C | 52% | 1022 hPa | 0 mm | - | - | - |
| 1777389682 | 16.67° C | 55% | 1022 hPa | 0 mm | - | - | - |
| 1777386712 | 15° C | 56% | 1022.4 hPa | 0 mm | - | - | - |
| 1777386084 | 15° C | 55% | 1022.4 hPa | 0 mm | - | - | - |
| 1777385497 | 14.44° C | 58% | 1022.4 hPa | 0 mm | - | - | - |
| 1777384593 | 14.44° C | 60% | 1022.5 hPa | 0 mm | - | - | - |
| 1777382793 | 13.89° C | 63% | 1022.6 hPa | 0 mm | - | - | - |
| 1777380697 | 12.78° C | 59% | 1022.6 hPa | 0 mm | - | - | - |
| 1777379492 | 12.22° C | 61% | 1022.7 hPa | 0 mm | - | - | - |
* Rain latest hour (hover to see other rain measurements)
** Current wind speed in m/s (hover to see current wind gust speed)